sat.trackr.live / text

‹ back to catalog

KUIPER-00163

NORAD 65777 · 2025-217R

PAYLOAD ACTIVE UNKNOWN

§ Identity

Operator
Country
US
Launch date
2025-09-25
Launch site
AFETR
Launch vehicle
Mass (kg)
RCS (m²)

External: N2YO · Heavens-Above · Gunter

§ Orbital elements

Epoch: 2026-07-26T18:08:57.172992Z

Period
88.07 min
Inclination
51.8570°
Eccentricity
0.0009117
Mean motion
16.35051133 rev/d
Perigee alt
173.0 km
Apogee alt
185.0 km
Semi-major
6,557.1 km
B*
6.5873e-4
RAAN
55.1298°
Arg perigee
275.3767°
Mean anomaly
84.6221°
Rev number
4,674

§ Raw data

KUIPER-001631 65777U 25217R   26207.75621728  .05224431  12272-4  65873-3 0  99952 65777  51.8570  55.1298 0009117 275.3767  84.6221 16.35051133 46747

JSON: /api/v1/satellites/65777 · /tle

For live sub-satellite position, see the globe view (requires WebGL).

§ Visibility from observer

Set your observer location to see the next 7 days of passes ≥ 10°. The values pass through the URL so the page stays shareable.

No JS? Fill the form by hand. The geolocation button needs JavaScript.